EW1675 Weather Reports


time (UTC)temp
F
wind
direction
speed
knots
gust
knots
rain 1hr
in
rain 24hr
in
rain mn
in
humidity
%
barometer
mb
20260903093023 72 0 0.0 0.0 0.00 0.00 0.00 95 1016.9
20260903092105 72 0 0.0 0.0 0.00 0.00 0.00 95 1017.0
20260903091045 72 0 0.0 0.0 0.00 0.00 0.00 95 1017.0
20260903090023 72 0 0.0 0.0 0.00 0.00 0.00 95 1017.0
20260903085023 72 0 0.0 0.0 0.00 0.00 0.00 95 1017.0
20260903084002 72 126 0.0 0.9 0.00 0.00 0.00 95 1016.9
20260903083002 73 126 0.0 0.9 0.00 0.00 0.00 95 1016.7
20260903082002 73 126 0.0 0.9 0.00 0.00 0.00 95 1017.1
20260903081002 73 126 0.0 0.9 0.00 0.00 0.00 95 1017.1
20260903080002 73 126 0.0 0.9 0.00 0.00 0.00 95 1017.0
20260903075003 73 0 0.0 0.0 0.00 0.00 0.00 95 1016.9
20260903074002 73 126 0.0 0.9 0.00 0.00 0.00 95 1016.9
20260903073002 73 126 0.0 1.7 0.00 0.00 0.00 95 1016.8
20260903072023 73 126 0.9 1.7 0.00 0.00 0.00 95 1016.7
20260903071044 73 121 0.9 2.6 0.00 0.00 0.00 94 1016.7
20260903070023 73 106 0.0 2.6 0.00 0.00 0.00 94 1016.5
20260903065023 73 79 0.9 2.6 0.00 0.00 0.00 94 1016.6
20260903064002 73 85 0.9 3.5 0.00 0.00 0.00 94 1016.6
20260903063023 73 108 0.9 4.3 0.00 0.00 0.00 94 1016.6
20260903062002 73 113 0.9 2.6 0.00 0.00 0.00 94 1016.6
20260903061023 73 101 0.9 5.2 0.00 0.00 0.00 94 1016.6
20260903060002 73 111 0.9 3.5 0.00 0.00 0.00 94 1016.7
20260903055002 73 98 0.0 1.7 0.00 0.00 0.00 94 1017.0
20260903054002 73 98 0.9 2.6 0.00 0.00 0.00 94 1017.1
20260903053002 74 100 0.9 3.5 0.00 0.00 0.00 94 1017.4
20260903052045 74 110 0.9 2.6 0.00 0.00 0.00 94 1017.4
20260903051023 74 114 0.0 1.7 0.00 0.00 0.00 94 1017.5
20260903050002 74 116 0.9 2.6 0.00 0.00 0.00 94 1017.2
20260903045003 74 118 0.9 2.6 0.00 0.00 0.00 94 1017.5
20260903044002 74 119 0.9 1.7 0.00 0.00 0.00 93 1017.6
20260903043023 74 119 0.9 1.7 0.00 0.00 0.00 93 1017.7
20260903042003 74 119 0.0 0.9 0.00 0.00 0.00 93 1017.8
20260903041024 74 119 0.0 0.9 0.00 0.00 0.00 93 1017.7
20260903040045 74 120 0.9 2.6 0.00 0.00 0.00 93 1017.6
20260903035003 74 97 0.0 2.6 0.00 0.00 0.00 93 1017.6
20260903034024 74 88 0.0 3.5 0.00 0.00 0.00 93 1017.5
20260903033024 74 218 0.0 0.9 0.00 0.00 0.00 92 1017.8
20260903032003 74 0 0.0 0.0 0.00 0.00 0.00 92 1017.7
20260903031003 74 0 0.0 0.0 0.00 0.00 0.00 91 1017.6
20260903030024 74 0 0.0 0.0 0.00 0.00 0.00 91 1017.5
20260903025024 75 0 0.0 0.0 0.00 0.00 0.00 91 1017.6
20260903024003 75 0 0.0 0.0 0.00 0.00 0.00 90 1017.5
20260903023045 75 0 0.0 0.0 0.00 0.00 0.00 90 1017.1
20260903022003 75 0 0.0 0.0 0.00 0.00 0.00 90 1017.1
20260903021003 75 218 0.0 0.9 0.00 0.00 0.00 90 1017.3
20260903020024 76 218 0.0 0.9 0.00 0.00 0.00 90 1017.1
20260903015024 76 218 0.0 0.9 0.00 0.00 0.00 90 1017.1
20260903014003 76 0 0.0 0.0 0.00 0.00 0.00 89 1017.2
20260903013003 76 218 0.0 0.9 0.00 0.00 0.00 89 1017.4
20260903012003 76 0 0.0 0.0 0.00 0.00 0.00 89 1017.5
20260903011003 76 218 0.0 1.7 0.00 0.00 0.00 90 1017.7
20260903010045 76 218 0.0 1.7 0.00 0.00 0.00 89 1017.9
20260903005024 77 195 0.0 0.9 0.00 0.00 0.00 89 1017.5
20260903004003 77 178 0.0 1.7 0.00 0.00 0.00 88 1017.5
20260903003024 77 108 0.0 0.9 0.00 0.00 0.00 87 1017.5
20260903002024 77 107 0.0 0.9 0.00 0.00 0.00 87 1017.9
20260903001045 78 107 0.0 0.9 0.00 0.00 0.00 87 1017.9
20260903000003 78 0 0.0 0.0 0.00 0.00 0.00 87 1017.9
20260902235024 78 0 0.0 0.0 0.00 0.00 0.00 86 1017.9
20260902234003 78 0 0.0 0.0 0.00 0.00 0.00 86 1017.6
20260902233003 78 0 0.0 0.0 0.00 0.00 0.00 85 1017.5
20260902232024 78 107 0.0 0.9 0.00 0.00 0.00 84 1017.6
20260902231045 78 111 0.0 0.9 0.00 0.00 0.00 83 1017.9
20260902230024 79 111 0.0 1.7 0.00 0.00 0.00 83 1018.1
20260902225024 79 0 0.0 0.0 0.00 0.00 0.00 83 1018.0
20260902224024 79 111 0.0 2.6 0.00 0.00 0.00 83 1017.9
20260902223024 79 125 0.0 2.6 0.00 0.00 0.00 83 1018.0
20260902222022 79 117 0.9 2.6 0.00 0.00 0.00 84 1017.7
20260902221001 79 94 0.9 2.6 0.00 0.00 0.00 85 1017.8
20260902220001 78 93 0.0 2.6 0.00 0.00 0.00 85 1017.8
20260902215002 78 98 0.0 1.7 0.00 0.00 0.00 85 1018.0
20260902214043 78 98 0.9 2.6 0.00 0.00 0.00 84 1018.0
20260902213105 78 96 0.0 1.7 0.00 0.00 0.00 84 1018.2
20260902212044 78 137 0.9 1.7 0.00 0.00 0.00 85 1018.3
20260902211002 78 221 0.0 1.7 0.00 0.00 0.00 85 1018.4
20260902210001 77 223 0.0 1.7 0.00 0.00 0.00 85 1018.1
20260902205002 78 223 0.0 0.9 0.00 0.00 0.00 85 1017.9
20260902204002 78 218 0.0 0.9 0.00 0.00 0.00 84 1017.8
20260902203002 78 213 0.0 0.9 0.00 0.00 0.00 84 1018.1
20260902202022 78 213 0.0 0.9 0.00 0.00 0.00 83 1018.0
20260902201023 78 217 0.0 1.7 0.00 0.00 0.00 83 1018.1
20260902200002 78 180 0.0 3.5 0.00 0.00 0.00 83 1018.6
20260902195002 79 163 0.0 3.5 0.00 0.00 0.00 82 1018.7
20260902194002 79 163 0.0 1.7 0.00 0.00 0.00 82 1018.8
20260902193002 80 164 0.9 3.5 0.00 0.00 0.00 80 1018.6
20260902192003 80 286 0.9 4.3 0.00 0.00 0.00 79 1018.3
20260902191002 81 336 0.9 2.6 0.00 0.00 0.00 76 1018.5
20260902190002 82 344 0.9 3.5 0.00 0.00 0.00 76 1018.8
20260902185002 83 147 0.9 2.6 0.00 0.00 0.00 73 1017.9
20260902184044 84 112 0.9 7.0 0.00 0.00 0.00 71 1018.8
20260902183023 86 105 2.6 7.8 0.00 0.00 0.00 66 1018.2
20260902182002 90 115 2.6 7.8 0.00 0.00 0.00 62 1018.7
20260902181002 92 121 0.9 5.2 0.00 0.00 0.00 65 1018.1
20260902180004 94 103 0.9 3.5 0.00 0.00 0.00 65 1018.1
20260902175023 94 320 0.9 2.6 0.00 0.00 0.00 63 1018.4
20260902174002 94 147 0.9 4.3 0.00 0.00 0.00 66 1018.4
20260902173002 94 137 1.7 5.2 0.00 0.00 0.00 65 1018.6
20260902172023 94 142 0.9 2.6 0.00 0.00 0.00 64 1018.6
20260902171002 94 150 1.7 5.2 0.00 0.00 0.00 66 1018.6
20260902170002 93 150 0.9 4.3 0.00 0.00 0.00 67 1018.5
20260902165002 93 170 0.9 4.3 0.00 0.00 0.00 67 1018.6
20260902164002 92 105 0.9 3.5 0.00 0.00 0.00 66 1018.7
20260902163044 92 127 0.9 3.5 0.00 0.00 0.00 66 1018.6
20260902162023 92 173 0.9 3.5 0.00 0.00 0.00 68 1018.6
20260902161002 92 128 0.9 5.2 0.00 0.00 0.00 68 1018.6
20260902160023 91 247 0.9 3.5 0.00 0.00 0.00 68 1018.7
20260902155002 91 154 0.9 3.5 0.00 0.00 0.00 68 1018.5
20260902154044 91 122 0.9 4.3 0.00 0.00 0.00 68 1018.6
20260902153023 90 159 0.9 5.2 0.00 0.00 0.00 69 1018.5
20260902152044 90 113 0.9 2.6 0.00 0.00 0.00 69 1018.6
20260902151002 89 103 0.9 2.6 0.00 0.00 0.00 70 1018.6
20260902150002 89 117 0.0 0.9 0.00 0.00 0.00 70 1018.7
20260902145003 88 11 0.9 1.7 0.00 0.00 0.00 71 1018.7
20260902144023 88 45 0.9 2.6 0.00 0.00 0.00 71 1018.7
20260902143002 87 148 0.0 1.7 0.00 0.00 0.00 74 1018.6
20260902142023 87 136 0.9 2.6 0.00 0.00 0.00 73 1018.5
20260902141003 86 123 0.9 2.6 0.00 0.00 0.00 77 1018.7
20260902140002 85 121 0.9 3.5 0.00 0.00 0.00 76 1018.8
20260902135002 84 146 0.9 1.7 0.00 0.00 0.00 78 1018.5
20260902134045 83 143 0.0 1.7 0.00 0.00 0.00 79 1018.7
20260902133002 82 102 0.9 2.6 0.00 0.00 0.00 80 1018.6
20260902132044 81 86 0.9 4.3 0.00 0.00 0.00 82 1018.7
20260902131002 80 126 0.0 3.5 0.00 0.00 0.00 84 1018.5
20260902130024 78 149 0.0 0.9 0.00 0.00 0.00 88 1018.5
20260902125002 77 0 0.0 0.0 0.00 0.00 0.00 89 1018.5
20260902124045 76 149 0.0 0.9 0.00 0.00 0.00 90 1018.6
20260902123045 75 149 0.0 0.9 0.00 0.00 0.00 92 1018.4
20260902122024 75 149 0.0 0.9 0.00 0.00 0.00 93 1018.3
20260902121003 75 150 0.0 0.9 0.00 0.00 0.00 93 1018.6
20260902120024 74 0 0.0 0.0 0.00 0.00 0.00 92 1018.5
20260902115024 74 0 0.0 0.0 0.00 0.00 0.00 92 1018.3
20260902114024 74 0 0.0 0.0 0.00 0.00 0.00 92 1018.2
20260902113003 74 0 0.0 0.0 0.00 0.00 0.00 91 1018.2
20260902112024 74 0 0.0 0.0 0.00 0.00 0.00 90 1018.1
20260902111003 74 0 0.0 0.0 0.00 0.00 0.00 90 1018.3
20260902110003 74 0 0.0 0.0 0.00 0.00 0.00 90 1018.3
20260902105003 74 0 0.0 0.0 0.00 0.00 0.00 90 1018.2
20260902104003 74 0 0.0 0.0 0.00 0.00 0.00 89 1018.3
20260902103003 74 0 0.0 0.0 0.00 0.00 0.00 89 1018.2
20260902102003 75 0 0.0 0.0 0.00 0.00 0.00 89 1018.1
20260902101003 75 0 0.0 0.0 0.00 0.00 0.00 88 1018.0
20260902100003 75 0 0.0 0.0 0.00 0.00 0.00 88 1017.8
20260902095002 75 0 0.0 0.0 0.00 0.00 0.00 88 1017.7
20260902094002 75 0 0.0 0.0 0.00 0.00 0.00 88 1017.7